Time,TemperatureF,DewpointF,PressureIn,WindDirection,WindDirectionDegrees,WindSpeedMPH,WindSpeedGustMPH,Humidity,HourlyPrecipIn,Conditions,Clouds,dailyrainin,SolarRadiationWatts/m^2,SoftwareType,DateUTC
2013-07-15 00:10:00,70.5,70.0,30.12,South,187,0.0,0.0,97,0.00,,,0.00,0,weatherlink.com 1.10,2013-07-15 04:10:00,
2013-07-15 00:25:00,70.3,69.0,30.13,South,187,0.0,1.0,97,0.00,,,0.00,0,weatherlink.com 1.10,2013-07-15 04:25:00,
2013-07-15 01:27:00,70.0,69.0,30.12,South,187,0.0,0.0,97,0.00,,,0.00,0,weatherlink.com 1.10,2013-07-15 05:27:00,
2013-07-15 01:41:00,69.8,69.0,30.12,South,187,0.0,0.0,97,0.00,,,0.00,0,weatherlink.com 1.10,2013-07-15 05:41:00,
2013-07-15 01:56:00,69.7,69.0,30.12,South,187,0.0,0.0,97,0.00,,,0.00,0,weatherlink.com 1.10,2013-07-15 05:56:00,
2013-07-15 02:12:00,69.6,69.0,30.11,South,187,0.0,0.0,97,0.00,,,0.00,0,weatherlink.com 1.10,2013-07-15 06:12:00,
2013-07-15 02:27:00,69.5,69.0,30.11,South,187,0.0,0.0,97,0.00,,,0.00,0,weatherlink.com 1.10,2013-07-15 06:27:00,
2013-07-15 02:42:00,69.6,69.0,30.11,South,187,0.0,0.0,97,0.00,,,0.00,0,weatherlink.com 1.10,2013-07-15 06:42:00,
2013-07-15 02:57:00,69.5,69.0,30.11,South,187,0.0,0.0,97,0.00,,,0.00,0,weatherlink.com 1.10,2013-07-15 06:57:00,
2013-07-15 03:28:00,69.3,69.0,30.10,South,187,0.0,0.0,97,0.00,,,0.00,0,weatherlink.com 1.10,2013-07-15 07:28:00,
2013-07-15 03:43:00,69.1,68.0,30.10,South,187,0.0,0.0,97,0.00,,,0.00,0,weatherlink.com 1.10,2013-07-15 07:43:00,
2013-07-15 03:58:00,69.3,69.0,30.10,South,187,0.0,0.0,98,0.00,,,0.00,0,weatherlink.com 1.10,2013-07-15 07:58:00,
2013-07-15 04:13:00,69.3,69.0,30.10,South,187,0.0,0.0,98,0.00,,,0.00,0,weatherlink.com 1.10,2013-07-15 08:13:00,
2013-07-15 04:29:00,69.5,69.0,30.10,South,187,0.0,0.0,98,0.00,,,0.00,0,weatherlink.com 1.10,2013-07-15 08:29:00,
2013-07-15 04:44:00,69.4,69.0,30.10,South,187,0.0,0.0,97,0.00,,,0.00,0,weatherlink.com 1.10,2013-07-15 08:44:00,
2013-07-15 05:00:00,69.4,69.0,30.10,South,187,0.0,0.0,97,0.00,,,0.00,0,weatherlink.com 1.10,2013-07-15 09:00:00,
2013-07-15 05:14:00,69.4,69.0,30.09,South,187,0.0,0.0,98,0.00,,,0.00,0,weatherlink.com 1.10,2013-07-15 09:14:00,
2013-07-15 05:30:00,69.5,69.0,30.09,South,187,0.0,0.0,98,0.00,,,0.00,0,weatherlink.com 1.10,2013-07-15 09:30:00,
2013-07-15 05:44:00,69.4,69.0,30.09,South,187,0.0,0.0,98,0.00,,,0.00,0,weatherlink.com 1.10,2013-07-15 09:44:00,
2013-07-15 06:00:00,69.4,69.0,30.09,South,187,0.0,0.0,98,0.00,,,0.00,0,weatherlink.com 1.10,2013-07-15 10:00:00,
2013-07-15 06:16:00,69.6,69.0,30.09,South,187,0.0,0.0,98,0.00,,,0.00,0,weatherlink.com 1.10,2013-07-15 10:16:00,
2013-07-15 06:31:00,69.5,69.0,30.09,South,187,0.0,0.0,98,0.00,,,0.00,0,weatherlink.com 1.10,2013-07-15 10:31:00,
2013-07-15 07:02:00,69.4,69.0,30.09,South,187,0.0,0.0,98,0.00,,,0.00,7,weatherlink.com 1.10,2013-07-15 11:02:00,
2013-07-15 07:31:00,69.5,69.0,30.11,South,187,0.0,0.0,98,0.00,,,0.00,16,weatherlink.com 1.10,2013-07-15 11:31:00,
2013-07-15 08:01:00,73.1,73.0,30.12,South,187,0.0,1.0,98,0.00,,,0.00,111,weatherlink.com 1.10,2013-07-15 12:01:00,
2013-07-15 08:16:00,74.1,74.0,30.12,South,187,1.0,2.0,98,0.00,,,0.00,53,weatherlink.com 1.10,2013-07-15 12:16:00,
2013-07-15 08:32:00,73.9,74.0,30.12,South,187,0.0,0.0,99,0.00,,,0.00,35,weatherlink.com 1.10,2013-07-15 12:32:00,
2013-07-15 08:48:00,73.7,73.0,30.13,South,187,0.0,1.0,98,0.00,,,0.00,67,weatherlink.com 1.10,2013-07-15 12:48:00,
2013-07-15 09:03:00,74.7,74.0,30.12,North,9,3.0,4.0,98,0.00,,,0.00,422,weatherlink.com 1.10,2013-07-15 13:03:00,
2013-07-15 09:18:00,77.4,77.0,30.12,North,5,2.0,6.0,98,0.00,,,0.00,559,weatherlink.com 1.10,2013-07-15 13:18:00,
2013-07-15 09:33:00,79.3,77.0,30.12,North,9,2.0,7.0,91,0.00,,,0.00,76,weatherlink.com 1.10,2013-07-15 13:33:00,
2013-07-15 09:48:00,78.8,76.0,30.13,NNE,24,1.0,3.0,90,0.00,,,0.00,114,weatherlink.com 1.10,2013-07-15 13:48:00,
2013-07-15 10:18:00,79.2,76.0,30.12,NNE,22,5.0,6.0,89,0.00,,,0.00,225,weatherlink.com 1.10,2013-07-15 14:18:00,
2013-07-15 10:32:00,80.7,77.0,30.12,NNW,348,0.0,6.0,88,0.00,,,0.00,777,weatherlink.com 1.10,2013-07-15 14:32:00,
2013-07-15 10:48:00,83.0,77.0,30.13,NNW,343,2.0,11.0,82,0.00,,,0.00,478,weatherlink.com 1.10,2013-07-15 14:48:00,
2013-07-15 11:03:00,82.5,77.0,30.13,ENE,65,1.0,8.0,83,0.00,,,0.00,309,weatherlink.com 1.10,2013-07-15 15:03:00,
2013-07-15 11:18:00,83.5,78.0,30.13,NNE,20,4.0,9.0,82,0.00,,,0.00,856,weatherlink.com 1.10,2013-07-15 15:18:00,
2013-07-15 11:48:00,83.3,76.0,30.12,East,93,3.0,5.0,78,0.00,,,0.00,425,weatherlink.com 1.10,2013-07-15 15:48:00,
2013-07-15 12:03:00,82.9,75.0,30.12,NE,55,1.0,11.0,77,0.00,,,0.00,330,weatherlink.com 1.10,2013-07-15 16:03:00,
2013-07-15 12:17:00,82.8,75.0,30.12,NNE,14,1.0,9.0,78,0.00,,,0.00,490,weatherlink.com 1.10,2013-07-15 16:17:00,
2013-07-15 12:33:00,83.6,77.0,30.11,NNE,17,4.0,9.0,80,0.00,,,0.00,485,weatherlink.com 1.10,2013-07-15 16:33:00,
2013-07-15 12:50:00,85.3,77.0,30.11,NNW,348,2.0,9.0,75,0.00,,,0.00,594,weatherlink.com 1.10,2013-07-15 16:50:00,
2013-07-15 13:33:00,85.7,76.0,30.11,East,101,2.0,9.0,73,0.00,,,0.00,466,weatherlink.com 1.10,2013-07-15 17:33:00,
2013-07-15 14:05:00,85.6,77.0,30.10,NNE,24,7.0,10.0,75,0.00,,,0.00,972,weatherlink.com 1.10,2013-07-15 18:05:00,
2013-07-15 14:35:00,86.8,77.0,30.08,North,360,9.0,9.0,73,0.00,,,0.00,1002,weatherlink.com 1.10,2013-07-15 18:35:00,
2013-07-15 15:06:00,87.0,77.0,30.08,ESE,104,2.0,9.0,71,0.00,,,0.00,1000,weatherlink.com 1.10,2013-07-15 19:06:00,
2013-07-15 15:21:00,86.2,76.0,30.07,North,5,5.0,9.0,72,0.00,,,0.00,698,weatherlink.com 1.10,2013-07-15 19:21:00,
2013-07-15 15:36:00,85.8,76.0,30.07,ENE,69,1.0,8.0,72,0.00,,,0.00,877,weatherlink.com 1.10,2013-07-15 19:36:00,
2013-07-15 15:51:00,85.2,75.0,30.07,East,101,3.0,10.0,72,0.00,,,0.00,237,weatherlink.com 1.10,2013-07-15 19:51:00,
2013-07-15 16:06:00,84.9,75.0,30.07,NNE,16,3.0,10.0,73,0.00,,,0.00,777,weatherlink.com 1.10,2013-07-15 20:06:00,
2013-07-15 16:22:00,85.7,76.0,30.07,East,82,5.0,7.0,73,0.00,,,0.00,621,weatherlink.com 1.10,2013-07-15 20:22:00,
2013-07-15 16:37:00,85.5,76.0,30.07,East,88,1.0,8.0,72,0.00,,,0.00,631,weatherlink.com 1.10,2013-07-15 20:37:00,
2013-07-15 16:51:00,85.5,77.0,30.06,NE,36,2.0,6.0,75,0.00,,,0.00,104,weatherlink.com 1.10,2013-07-15 20:51:00,
2013-07-15 17:07:00,84.6,75.0,30.05,East,89,1.0,10.0,73,0.00,,,0.00,72,weatherlink.com 1.10,2013-07-15 21:07:00,
2013-07-15 17:22:00,84.6,76.0,30.06,East,95,6.0,8.0,74,0.00,,,0.00,185,weatherlink.com 1.10,2013-07-15 21:22:00,
2013-07-15 17:38:00,83.6,76.0,30.06,NNE,21,1.0,11.0,77,0.00,,,0.00,91,weatherlink.com 1.10,2013-07-15 21:38:00,
2013-07-15 17:52:00,83.6,75.0,30.06,ENE,75,1.0,10.0,76,0.00,,,0.00,120,weatherlink.com 1.10,2013-07-15 21:52:00,
2013-07-15 18:08:00,82.0,75.0,30.07,ESE,111,4.0,9.0,79,0.00,,,0.00,54,weatherlink.com 1.10,2013-07-15 22:08:00,
2013-07-15 18:23:00,82.1,75.0,30.07,SSE,155,7.0,10.0,79,0.00,,,0.00,93,weatherlink.com 1.10,2013-07-15 22:23:00,
2013-07-15 18:39:00,82.4,75.0,30.06,East,90,2.0,12.0,78,0.00,,,0.00,67,weatherlink.com 1.10,2013-07-15 22:39:00,
2013-07-15 18:54:00,81.9,75.0,30.06,ESE,102,0.0,10.0,79,0.00,,,0.00,54,weatherlink.com 1.10,2013-07-15 22:54:00,
2013-07-15 19:09:00,81.4,75.0,30.07,East,90,5.0,10.0,80,0.00,,,0.00,51,weatherlink.com 1.10,2013-07-15 23:09:00,
2013-07-15 19:40:00,80.0,74.0,30.08,SE,127,0.0,7.0,83,0.00,,,0.00,28,weatherlink.com 1.10,2013-07-15 23:40:00,
2013-07-15 19:55:00,79.4,74.0,30.08,East,88,0.0,8.0,84,0.00,,,0.00,16,weatherlink.com 1.10,2013-07-15 23:55:00,
2013-07-15 20:10:00,79.0,74.0,30.08,South,187,0.0,7.0,85,0.00,,,0.00,5,weatherlink.com 1.10,2013-07-16 00:10:00,
2013-07-15 20:26:00,78.5,74.0,30.08,ENE,57,0.0,5.0,86,0.00,,,0.00,0,weatherlink.com 1.10,2013-07-16 00:26:00,
2013-07-15 20:56:00,77.9,74.0,30.09,East,83,1.0,4.0,88,0.00,,,0.00,0,weatherlink.com 1.10,2013-07-16 00:56:00,
2013-07-15 21:11:00,77.7,74.0,30.10,SSE,155,0.0,5.0,89,0.00,,,0.00,0,weatherlink.com 1.10,2013-07-16 01:11:00,
2013-07-15 21:25:00,77.6,75.0,30.11,ESE,123,0.0,4.0,90,0.00,,,0.00,0,weatherlink.com 1.10,2013-07-16 01:25:00,
2013-07-15 21:41:00,77.5,74.0,30.12,South,171,0.0,5.0,90,0.00,,,0.00,0,weatherlink.com 1.10,2013-07-16 01:41:00,
2013-07-15 22:11:00,77.2,74.0,30.13,SE,137,0.0,7.0,89,0.00,,,0.00,0,weatherlink.com 1.10,2013-07-16 02:11:00,
2013-07-15 23:12:00,76.5,73.0,30.15,East,100,0.0,2.0,89,0.00,,,0.00,0,weatherlink.com 1.10,2013-07-16 03:12:00,
2013-07-15 23:28:00,76.2,73.0,30.15,ENE,74,0.0,3.0,90,0.00,,,0.00,0,weatherlink.com 1.10,2013-07-16 03:28:00,
2013-07-15 23:43:00,76.0,73.0,30.15,East,82,0.0,1.0,90,0.00,,,0.00,0,weatherlink.com 1.10,2013-07-16 03:43:00,
2013-07-15 23:59:00,75.7,73.0,30.14,East,82,0.0,2.0,91,0.00,,,0.00,0,weatherlink.com 1.10,2013-07-16 03:59:00,